Year,Month,Day,Hour,Minute,Value (Times are PST for temperature in C)
2016,12,14,00,00,-9.60
2016,12,14,00,01,-9.60
2016,12,14,00,02,-9.60
2016,12,14,00,03,-9.60
2016,12,14,00,04,-9.60
2016,12,14,00,05,-9.60
2016,12,14,00,06,-9.60
2016,12,14,00,07,-9.60
2016,12,14,00,08,-9.60
2016,12,14,00,09,-9.60
2016,12,14,00,10,-9.60
2016,12,14,00,11,-9.70
2016,12,14,00,12,-9.70
2016,12,14,00,13,-9.70
2016,12,14,00,14,-9.70
2016,12,14,00,15,-9.70
2016,12,14,00,16,-9.70
2016,12,14,00,17,-9.70
2016,12,14,00,18,-9.70
2016,12,14,00,19,-9.70
2016,12,14,00,20,-9.70
2016,12,14,00,21,-9.70
2016,12,14,00,22,-9.70
2016,12,14,00,23,-9.70
2016,12,14,00,24,-9.70
2016,12,14,00,25,-9.70
2016,12,14,00,26,-9.70
2016,12,14,00,27,-9.70
2016,12,14,00,28,-9.70
2016,12,14,00,29,-9.70
2016,12,14,00,30,-9.70
2016,12,14,00,31,-9.60
2016,12,14,00,32,-9.60
2016,12,14,00,33,-9.60
2016,12,14,00,34,-9.60
2016,12,14,00,35,-9.60
2016,12,14,00,36,-9.60
2016,12,14,00,37,-9.60
2016,12,14,00,38,-9.60
2016,12,14,00,39,-9.60
2016,12,14,00,40,-9.60
2016,12,14,00,41,-9.60
2016,12,14,00,42,-9.60
2016,12,14,00,43,-9.60
2016,12,14,00,44,-9.60
2016,12,14,00,45,-9.60
2016,12,14,00,46,-9.60
2016,12,14,00,47,-9.60
2016,12,14,00,48,-9.60
2016,12,14,00,49,-9.60
2016,12,14,00,50,-9.60
2016,12,14,00,51,-9.70
2016,12,14,00,52,-9.70
2016,12,14,00,53,-9.70
2016,12,14,00,54,-9.70
2016,12,14,00,55,-9.70
2016,12,14,00,56,-9.70
2016,12,14,00,57,-9.70
2016,12,14,00,58,-9.70
2016,12,14,00,59,-9.70
2016,12,14,01,00,-9.70
2016,12,14,01,01,-9.80
2016,12,14,01,02,-9.80
2016,12,14,01,03,-9.80
2016,12,14,01,04,-9.80
2016,12,14,01,05,-9.80
2016,12,14,01,06,-9.80
2016,12,14,01,07,-9.80
2016,12,14,01,08,-9.80
2016,12,14,01,09,-9.80
2016,12,14,01,10,-9.80
2016,12,14,01,11,-9.80
2016,12,14,01,12,-10.00
2016,12,14,01,13,-10.00
2016,12,14,01,14,-10.00
2016,12,14,01,15,-10.00
2016,12,14,01,16,-10.00
2016,12,14,01,17,-10.00
2016,12,14,01,18,-10.00
2016,12,14,01,19,-10.00
2016,12,14,01,20,-10.00
2016,12,14,01,21,-10.10
2016,12,14,01,22,-10.10
2016,12,14,01,23,-10.10
2016,12,14,01,24,-10.10
2016,12,14,01,25,-10.10
2016,12,14,01,26,-10.10
2016,12,14,01,27,-10.10
2016,12,14,01,28,-10.10
2016,12,14,01,29,-10.10
2016,12,14,01,30,-10.10
2016,12,14,01,31,-10.10
2016,12,14,01,32,-10.20
2016,12,14,01,33,-10.20
2016,12,14,01,34,-10.20
2016,12,14,01,35,-10.20
2016,12,14,01,36,-10.20
2016,12,14,01,37,-10.20
2016,12,14,01,38,-10.20
2016,12,14,01,39,-10.20
2016,12,14,01,40,-10.20
2016,12,14,01,41,-10.20
2016,12,14,01,42,-10.20
2016,12,14,01,43,-10.10
2016,12,14,01,44,-10.10
2016,12,14,01,45,-10.10
2016,12,14,01,46,-10.10
2016,12,14,01,47,-10.10
2016,12,14,01,48,-10.10
2016,12,14,01,49,-10.10
2016,12,14,01,50,-10.10
2016,12,14,02,01,-10.10
2016,12,14,02,02,-10.10
2016,12,14,02,03,-10.10
2016,12,14,02,04,-10.10
2016,12,14,02,05,-10.10
2016,12,14,02,06,-10.10
2016,12,14,02,07,-10.10
2016,12,14,02,08,-10.10
2016,12,14,02,09,-10.10
2016,12,14,02,10,-10.10
2016,12,14,02,11,-10.20
2016,12,14,02,12,-10.20
2016,12,14,02,13,-10.20
2016,12,14,02,14,-10.20
2016,12,14,02,15,-10.20
2016,12,14,02,16,-10.20
2016,12,14,02,17,-10.20
2016,12,14,02,18,-10.20
2016,12,14,02,19,-10.20
2016,12,14,02,20,-10.20
2016,12,14,02,21,-10.20
2016,12,14,02,22,-10.20
2016,12,14,02,23,-10.20
2016,12,14,02,24,-10.20
2016,12,14,02,25,-10.20
2016,12,14,02,26,-10.20
2016,12,14,02,27,-10.20
2016,12,14,02,28,-10.20
2016,12,14,02,29,-10.20
2016,12,14,02,30,-10.20
2016,12,14,02,31,-10.20
2016,12,14,02,32,-10.30
2016,12,14,02,33,-10.30
2016,12,14,02,34,-10.30
2016,12,14,02,35,-10.30
2016,12,14,02,36,-10.30
2016,12,14,02,37,-10.30
2016,12,14,02,38,-10.30
2016,12,14,02,39,-10.30
2016,12,14,02,40,-10.30
2016,12,14,02,41,-10.30
2016,12,14,02,52,-10.30
2016,12,14,02,53,-10.30
2016,12,14,02,54,-10.30
2016,12,14,02,55,-10.30
2016,12,14,02,56,-10.30
2016,12,14,02,57,-10.30
2016,12,14,02,58,-10.30
2016,12,14,02,59,-10.30
2016,12,14,03,00,-10.30
2016,12,14,03,01,-10.30
2016,12,14,03,02,-10.30
2016,12,14,03,03,-10.30
2016,12,14,03,04,-10.30
2016,12,14,03,05,-10.30
2016,12,14,03,06,-10.30
2016,12,14,03,07,-10.30
2016,12,14,03,08,-10.30
2016,12,14,03,09,-10.30
2016,12,14,03,10,-10.30
2016,12,14,03,11,-10.30
2016,12,14,03,12,-10.30
2016,12,14,03,13,-10.30
2016,12,14,03,14,-10.30
2016,12,14,03,15,-10.30
2016,12,14,03,16,-10.30
2016,12,14,03,17,-10.30
2016,12,14,03,18,-10.30
2016,12,14,03,19,-10.30
2016,12,14,03,20,-10.30
2016,12,14,03,21,-10.30
2016,12,14,03,22,-10.30
2016,12,14,03,23,-10.30
2016,12,14,03,24,-10.30
2016,12,14,03,25,-10.30
2016,12,14,03,26,-10.30
2016,12,14,03,27,-10.30
2016,12,14,03,28,-10.30
2016,12,14,03,29,-10.30
2016,12,14,03,30,-10.30
2016,12,14,03,31,-10.30
2016,12,14,03,32,-10.30
2016,12,14,03,33,-10.30
2016,12,14,03,34,-10.30
2016,12,14,03,35,-10.30
2016,12,14,03,36,-10.30
2016,12,14,03,37,-10.30
2016,12,14,03,38,-10.30
2016,12,14,03,39,-10.30
2016,12,14,03,40,-10.30
2016,12,14,03,41,-10.30
2016,12,14,03,42,-10.30
2016,12,14,03,43,-7.20
2016,12,14,03,44,-7.20
2016,12,14,03,45,-7.20
2016,12,14,03,46,-7.20
2016,12,14,03,47,-7.20
2016,12,14,03,48,-7.20
2016,12,14,03,49,-7.20
2016,12,14,03,50,-7.20
2016,12,14,03,51,-10.30
2016,12,14,03,52,-10.30
2016,12,14,03,53,-10.30
2016,12,14,03,54,-10.30
2016,12,14,03,55,-10.30
2016,12,14,03,56,-10.30
2016,12,14,03,57,-10.30
2016,12,14,03,58,-10.30
2016,12,14,03,59,-10.30
2016,12,14,04,00,-10.30
2016,12,14,04,01,-10.30
2016,12,14,04,02,-10.30
2016,12,14,04,03,-10.30
2016,12,14,04,04,-10.30
2016,12,14,04,05,-10.30
2016,12,14,04,06,-10.30
2016,12,14,04,07,-10.30
2016,12,14,04,08,-10.30
2016,12,14,04,09,-10.30
2016,12,14,04,10,-10.30
2016,12,14,04,11,-10.20
2016,12,14,04,12,-10.20
2016,12,14,04,13,-10.20
2016,12,14,04,14,-10.20
2016,12,14,04,15,-10.20
2016,12,14,04,16,-10.20
2016,12,14,04,17,-10.20
2016,12,14,04,18,-10.20
2016,12,14,04,19,-10.20
2016,12,14,04,20,-10.20
2016,12,14,04,21,-10.20
2016,12,14,04,22,-10.20
2016,12,14,04,23,-10.20
2016,12,14,04,24,-10.20
2016,12,14,04,25,-10.20
2016,12,14,04,26,-10.20
2016,12,14,04,27,-10.20
2016,12,14,04,28,-10.20
2016,12,14,04,29,-10.20
2016,12,14,04,30,-10.20
2016,12,14,04,31,-10.20
2016,12,14,04,32,-10.20
2016,12,14,04,33,-10.20
2016,12,14,04,34,-10.20
2016,12,14,04,35,-10.20
2016,12,14,04,36,-10.20
2016,12,14,04,37,-10.20
2016,12,14,04,38,-10.20
2016,12,14,04,39,-10.20
2016,12,14,04,40,-10.20
2016,12,14,04,41,-10.20
2016,12,14,04,42,-7.50
2016,12,14,04,43,-7.50
2016,12,14,04,44,-7.50
2016,12,14,04,45,-7.50
2016,12,14,04,46,-7.50
2016,12,14,04,47,-7.50
2016,12,14,04,48,-7.50
2016,12,14,04,49,-7.50
2016,12,14,04,50,-7.50
2016,12,14,04,51,-7.50
2016,12,14,04,52,-7.50
2016,12,14,04,53,-10.10
2016,12,14,04,54,-10.10
2016,12,14,04,55,-10.10
2016,12,14,04,56,-10.10
2016,12,14,04,57,-10.10
2016,12,14,04,58,-10.10
2016,12,14,04,59,-10.10
2016,12,14,05,00,-10.10
2016,12,14,05,01,-10.10
2016,12,14,05,02,-10.10
2016,12,14,05,03,-10.10
2016,12,14,05,04,-10.10
2016,12,14,05,05,-10.10
2016,12,14,05,06,-10.10
2016,12,14,05,07,-10.10
2016,12,14,05,08,-10.10
2016,12,14,05,09,-10.10
2016,12,14,05,10,-10.10
2016,12,14,05,11,-10.10
2016,12,14,05,12,-9.90
2016,12,14,05,13,-9.90
2016,12,14,05,14,-9.90
2016,12,14,05,15,-9.90
2016,12,14,05,16,-9.90
2016,12,14,05,17,-9.90
2016,12,14,05,18,-9.90
2016,12,14,05,19,-9.90
2016,12,14,05,20,-9.90
2016,12,14,05,21,-9.90
2016,12,14,05,22,-9.90
2016,12,14,05,23,-9.90
2016,12,14,05,24,-9.90
2016,12,14,05,25,-9.90
2016,12,14,05,26,-9.90
2016,12,14,05,27,-9.90
2016,12,14,05,28,-9.90
2016,12,14,05,29,-9.90
2016,12,14,05,30,-9.90
2016,12,14,05,31,-9.90
2016,12,14,05,43,-10.10
2016,12,14,05,44,-10.10
2016,12,14,05,45,-10.10
2016,12,14,05,46,-10.10
2016,12,14,05,47,-10.10
2016,12,14,05,48,-10.10
2016,12,14,05,49,-10.10
2016,12,14,05,50,-10.10
2016,12,14,05,51,-10.10
2016,12,14,05,52,-10.10
2016,12,14,05,53,-10.10
2016,12,14,05,54,-10.10
2016,12,14,05,55,-10.10
2016,12,14,05,56,-10.10
2016,12,14,05,57,-10.10
2016,12,14,05,58,-10.10
2016,12,14,05,59,-10.10
2016,12,14,06,00,-10.10
2016,12,14,06,01,-10.10
2016,12,14,06,02,-10.10
2016,12,14,06,03,-10.10
2016,12,14,06,04,-10.10
2016,12,14,06,05,-10.10
2016,12,14,06,06,-10.10
2016,12,14,06,07,-10.10
2016,12,14,06,08,-10.10
2016,12,14,06,09,-10.10
2016,12,14,06,10,-10.10
2016,12,14,06,11,-10.20
2016,12,14,06,12,-10.20
2016,12,14,06,13,-10.20
2016,12,14,06,14,-10.20
2016,12,14,06,15,-10.20
2016,12,14,06,16,-10.20
2016,12,14,06,17,-10.20
2016,12,14,06,18,-10.20
2016,12,14,06,19,-10.20
2016,12,14,06,20,-10.20
2016,12,14,06,21,-10.20
2016,12,14,06,22,-10.20
2016,12,14,06,23,-10.20
2016,12,14,06,24,-10.20
2016,12,14,06,25,-10.20
2016,12,14,06,26,-10.20
2016,12,14,06,27,-10.20
2016,12,14,06,28,-10.20
2016,12,14,06,29,-10.20
2016,12,14,06,30,-10.20
2016,12,14,06,31,-10.20
2016,12,14,06,32,-10.20
2016,12,14,06,33,-10.20
2016,12,14,06,34,-10.20
2016,12,14,06,35,-10.20
2016,12,14,06,36,-10.20
2016,12,14,06,37,-10.20
2016,12,14,06,38,-10.20
2016,12,14,06,39,-10.20
2016,12,14,06,40,-10.20
2016,12,14,06,41,-10.20
2016,12,14,06,42,-10.20
2016,12,14,06,43,-10.20
2016,12,14,06,44,-10.20
2016,12,14,06,45,-10.20
2016,12,14,06,46,-10.20
2016,12,14,06,47,-10.20
2016,12,14,06,48,-10.20
2016,12,14,06,49,-10.20
2016,12,14,06,50,-10.20
2016,12,14,06,51,-10.20
2016,12,14,06,52,-10.20
2016,12,14,06,53,-10.20
2016,12,14,06,54,-10.20
2016,12,14,06,55,-10.20
2016,12,14,06,56,-10.20
2016,12,14,06,57,-10.20
2016,12,14,06,58,-10.20
2016,12,14,06,59,-10.20
2016,12,14,07,00,-10.20
2016,12,14,07,01,-10.20
2016,12,14,07,02,-10.10
2016,12,14,07,03,-10.10
2016,12,14,07,04,-10.10
2016,12,14,07,05,-10.10
2016,12,14,07,06,-10.10
2016,12,14,07,07,-10.10
2016,12,14,07,08,-10.10
2016,12,14,07,09,-10.10
2016,12,14,07,10,-10.10
2016,12,14,07,11,-10.10
2016,12,14,07,12,-10.10
2016,12,14,07,13,-10.10
2016,12,14,07,14,-10.10
2016,12,14,07,15,-10.10
2016,12,14,07,16,-10.10
2016,12,14,07,17,-10.10
2016,12,14,07,18,-10.10
2016,12,14,07,19,-10.10
2016,12,14,07,20,-10.10
2016,12,14,07,21,-10.10
2016,12,14,07,22,-10.10
2016,12,14,07,23,-10.10
2016,12,14,07,24,-10.10
2016,12,14,07,25,-10.10
2016,12,14,07,26,-10.10
2016,12,14,07,27,-10.10
2016,12,14,07,28,-10.10
2016,12,14,07,29,-10.10
2016,12,14,07,30,-10.10
2016,12,14,07,31,-10.10
2016,12,14,07,41,-10.10
2016,12,14,07,42,-10.10
2016,12,14,07,43,-10.10
2016,12,14,07,44,-10.10
2016,12,14,07,45,-10.10
2016,12,14,07,46,-10.10
2016,12,14,07,47,-10.10
2016,12,14,07,48,-10.10
2016,12,14,07,49,-10.10
2016,12,14,07,50,-10.10
2016,12,14,07,51,-10.10
2016,12,14,07,52,-8.50
2016,12,14,07,53,-8.50
2016,12,14,07,54,-8.50
2016,12,14,07,55,-8.50
2016,12,14,07,56,-8.50
2016,12,14,07,57,-8.50
2016,12,14,07,58,-8.50
2016,12,14,07,59,-8.50
2016,12,14,08,00,-8.50
2016,12,14,08,21,-9.90
2016,12,14,08,22,-9.90
2016,12,14,08,23,-9.90
2016,12,14,08,24,-9.90
2016,12,14,08,25,-9.90
2016,12,14,08,26,-9.90
2016,12,14,08,27,-9.90
2016,12,14,08,28,-9.90
2016,12,14,08,29,-9.90
2016,12,14,08,30,-9.90
2016,12,14,08,31,-9.80
2016,12,14,08,32,-9.80
2016,12,14,08,33,-9.80
2016,12,14,08,34,-9.80
2016,12,14,08,35,-9.80
2016,12,14,08,36,-9.80
2016,12,14,08,37,-9.80
2016,12,14,08,38,-9.80
2016,12,14,08,39,-9.80
2016,12,14,08,40,-9.80
2016,12,14,08,41,-9.80
2016,12,14,08,42,-9.80
2016,12,14,08,43,-9.80
2016,12,14,08,44,-9.80
2016,12,14,08,45,-9.80
2016,12,14,08,46,-9.80
2016,12,14,08,47,-9.80
2016,12,14,08,48,-9.80
2016,12,14,08,49,-9.80
2016,12,14,08,50,-9.80
2016,12,14,08,51,-9.60
2016,12,14,08,52,-9.60
2016,12,14,08,53,-9.60
2016,12,14,08,54,-9.60
2016,12,14,08,55,-9.60
2016,12,14,08,56,-9.60
2016,12,14,08,57,-9.60
2016,12,14,08,58,-9.60
2016,12,14,08,59,-9.60
2016,12,14,09,00,-9.60
2016,12,14,09,01,-9.60
2016,12,14,09,02,-9.50
2016,12,14,09,03,-9.50
2016,12,14,09,04,-9.50
2016,12,14,09,05,-9.50
2016,12,14,09,06,-9.50
2016,12,14,09,07,-9.50
2016,12,14,09,08,-9.50
2016,12,14,09,09,-9.50
2016,12,14,09,10,-9.50
2016,12,14,09,11,-9.50
2016,12,14,09,12,-9.50
2016,12,14,09,13,-9.50
2016,12,14,09,14,-9.50
2016,12,14,09,15,-9.50
2016,12,14,09,16,-9.50
2016,12,14,09,17,-9.50
2016,12,14,09,18,-9.50
2016,12,14,09,19,-9.50
2016,12,14,09,20,-9.50
2016,12,14,09,21,-9.50
2016,12,14,09,22,-9.50
2016,12,14,09,23,-9.50
2016,12,14,09,24,-9.50
2016,12,14,09,25,-9.50
2016,12,14,09,26,-9.50
2016,12,14,09,27,-9.50
2016,12,14,09,28,-9.50
2016,12,14,09,29,-9.50
2016,12,14,09,30,-9.50
2016,12,14,09,31,-9.50
2016,12,14,09,32,-9.00
2016,12,14,09,33,-9.00
2016,12,14,09,34,-9.00
2016,12,14,09,35,-9.00
2016,12,14,09,36,-9.00
2016,12,14,09,37,-9.00
2016,12,14,09,38,-9.00
2016,12,14,09,39,-9.00
2016,12,14,09,40,-9.00
2016,12,14,09,41,-8.60
2016,12,14,09,42,-8.60
2016,12,14,09,43,-8.60
2016,12,14,09,44,-8.60
2016,12,14,09,45,-8.60
2016,12,14,09,46,-8.60
2016,12,14,09,47,-8.60
2016,12,14,09,48,-8.60
2016,12,14,09,49,-8.60
2016,12,14,09,50,-8.60
2016,12,14,09,51,-8.40
2016,12,14,09,52,-8.40
2016,12,14,09,53,-8.40
2016,12,14,09,54,-8.40
2016,12,14,09,55,-8.40
2016,12,14,09,56,-8.40
2016,12,14,09,57,-8.40
2016,12,14,09,58,-8.40
2016,12,14,09,59,-8.40
2016,12,14,10,00,-8.40
2016,12,14,10,01,-8.30
2016,12,14,10,02,-8.30
2016,12,14,10,03,-8.30
2016,12,14,10,04,-8.30
2016,12,14,10,05,-8.30
2016,12,14,10,06,-8.30
2016,12,14,10,07,-8.30
2016,12,14,10,08,-8.30
2016,12,14,10,09,-8.30
2016,12,14,10,10,-8.30
2016,12,14,10,11,-8.30
2016,12,14,10,12,-8.20
2016,12,14,10,13,-8.20
2016,12,14,10,14,-8.20
2016,12,14,10,15,-8.20
2016,12,14,10,16,-8.20
2016,12,14,10,17,-8.20
2016,12,14,10,18,-8.20
2016,12,14,10,19,-8.20
2016,12,14,10,20,-8.20
2016,12,14,10,21,-7.90
2016,12,14,10,22,-7.90
2016,12,14,10,23,-7.90
2016,12,14,10,24,-7.90
2016,12,14,10,25,-7.90
2016,12,14,10,26,-7.90
2016,12,14,10,27,-7.90
2016,12,14,10,28,-7.90
2016,12,14,10,29,-7.90
2016,12,14,10,30,-7.90
2016,12,14,10,31,-7.80
2016,12,14,10,32,-7.80
2016,12,14,10,33,-7.80
2016,12,14,10,34,-7.80
2016,12,14,10,35,-7.80
2016,12,14,10,36,-7.80
2016,12,14,10,37,-7.80
2016,12,14,10,38,-7.80
2016,12,14,10,39,-7.80
2016,12,14,10,40,-7.80
2016,12,14,10,41,-7.70
2016,12,14,10,42,-7.70
2016,12,14,10,43,-7.70
2016,12,14,10,44,-7.70
2016,12,14,10,45,-7.70
2016,12,14,10,46,-7.70
2016,12,14,10,47,-7.70
2016,12,14,10,48,-7.70
2016,12,14,10,49,-7.70
2016,12,14,10,50,-7.70
2016,12,14,10,51,-7.70
2016,12,14,10,52,-7.60
2016,12,14,10,53,-7.60
2016,12,14,10,54,-7.60
2016,12,14,10,55,-7.60
2016,12,14,10,56,-7.60
2016,12,14,10,57,-7.60
2016,12,14,10,58,-7.60
2016,12,14,10,59,-7.60
2016,12,14,11,00,-7.60
2016,12,14,11,01,-7.60
2016,12,14,11,02,-7.60
2016,12,14,11,03,-7.60
2016,12,14,11,04,-7.60
2016,12,14,11,05,-7.60
2016,12,14,11,06,-7.60
2016,12,14,11,07,-7.60
2016,12,14,11,08,-7.60
2016,12,14,11,09,-7.60
2016,12,14,11,10,-7.60
2016,12,14,11,11,-7.40
2016,12,14,11,12,-7.40
2016,12,14,11,13,-7.40
2016,12,14,11,14,-7.40
2016,12,14,11,15,-7.40
2016,12,14,11,16,-7.40
2016,12,14,11,17,-7.40
2016,12,14,11,18,-7.40
2016,12,14,11,19,-7.40
2016,12,14,11,20,-7.40
2016,12,14,11,21,-7.40
2016,12,14,11,22,-7.50
2016,12,14,11,23,-7.50
2016,12,14,11,24,-7.50
2016,12,14,11,25,-7.50
2016,12,14,11,26,-7.50
2016,12,14,11,27,-7.50
2016,12,14,11,28,-7.50
2016,12,14,11,29,-7.50
2016,12,14,11,30,-7.50
2016,12,14,11,31,-7.40
2016,12,14,11,32,-7.40
2016,12,14,11,33,-7.40
2016,12,14,11,34,-7.40
2016,12,14,11,35,-7.40
2016,12,14,11,36,-7.40
2016,12,14,11,37,-7.40
2016,12,14,11,38,-7.40
2016,12,14,11,39,-7.40
2016,12,14,11,40,-7.40
2016,12,14,11,41,-7.20
2016,12,14,11,42,-7.20
2016,12,14,11,43,-7.20
2016,12,14,11,44,-7.20
2016,12,14,11,45,-7.20
2016,12,14,11,46,-7.20
2016,12,14,11,47,-7.20
2016,12,14,11,48,-7.20
2016,12,14,11,49,-7.20
2016,12,14,11,50,-7.20
2016,12,14,11,51,-7.20
2016,12,14,11,52,-7.20
2016,12,14,11,53,-7.00
2016,12,14,11,54,-7.00
2016,12,14,11,55,-7.00
2016,12,14,11,56,-7.00
2016,12,14,11,57,-7.00
2016,12,14,11,58,-7.00
2016,12,14,11,59,-7.00
2016,12,14,12,00,-7.00
2016,12,14,12,01,-6.80
2016,12,14,12,02,-6.80
2016,12,14,12,03,-6.80
2016,12,14,12,04,-6.80
2016,12,14,12,05,-6.80
2016,12,14,12,06,-6.80
2016,12,14,12,07,-6.80
2016,12,14,12,08,-6.80
2016,12,14,12,09,-6.80
2016,12,14,12,10,-6.80
2016,12,14,12,11,-6.80
2016,12,14,12,12,-6.80
2016,12,14,12,13,-6.80
2016,12,14,12,14,-6.80
2016,12,14,12,15,-6.80
2016,12,14,12,16,-6.80
2016,12,14,12,17,-6.80
2016,12,14,12,18,-6.80
2016,12,14,12,19,-6.80
2016,12,14,12,20,-6.80
2016,12,14,12,21,-6.80
2016,12,14,12,32,-7.50
2016,12,14,12,33,-7.50
2016,12,14,12,34,-7.50
2016,12,14,12,35,-7.50
